Regional Weather Roundup
Issued by NWS

Home | Current Version | Previous Version | Graphics & Text | Print | Product List | Glossary On
Versions: 1 2 3 4 5 6 7 8 9 10 11 12 13 14 15 16 17 18 19 20 21 22 23 24 25 26 27 28 29 30 31 32 33 34 35 36 37 38 39 40 41 42 43 44 45 46 47 48 49 50
000
ASUS43 KFSD 011302
RWRSD

WEATHER ROUNDUP FOR SOUTH DAKOTA
NATIONAL WEATHER SERVICE SIOUX FALLS SD
800 AM CDT WED JUL 01 2015

NOTE: "FAIR" INDICATES FEW OR NO CLOUDS BELOW 12,000 FEET WITH NO
SIGNIFICANT WEATHER AND/OR OBSTRUCTIONS TO VISIBILITY.


SDZ001>005-009-010-012>017-011400-
NORTHWEST AND NORTH CENTRAL SOUTH DAKOTA

CITY           SKY/WX    TMP DP  RH WIND       PRES   REMARKS
BUFFALO          N/A     67  58  72 NW17      29.90R
FAITH            N/A     61  59  93 NE8       29.92R
MOBRIDGE       CLOUDY    68  66  93 E7        29.89R FOG
$$

SDZ012>016-024>037-041>051-057-063-072>074-011400-
SOUTHWEST AND SOUTH CENTRAL SOUTH DAKOTA

CITY           SKY/WX    TMP DP  RH WIND       PRES   REMARKS
RAPID CTY ARPT SUNNY     70  60  70 NW7       29.95R
PIERRE         SUNNY     66  64  93 E6        29.86S
CUSTER         SUNNY     65  52  62 NW3       30.13R
ELLSWORTH AFB  SUNNY     71  60  69 W7        29.95R
PHILIP         MOSUNNY   66  64  93 N3        29.90R
PINE RIDGE     MOSUNNY   66  62  87 W5        29.98R
WINNER         FAIR      67  62  84 SE8       29.88S
$$

SDZ004>011-016>023-039-040-011400-
NORTHEAST SOUTH DAKOTA

CITY           SKY/WX    TMP DP  RH WIND       PRES   REMARKS
ABERDEEN       CLOUDY    66  64  93 E6        29.92R FOG
WATERTOWN      CLOUDY    64  60  87 E8        29.93S FOG
BROOKINGS      CLOUDY    63  59  88 E8        29.95S
SISSETON         N/A     63  62  97 S5        29.94R
$$

SDZ017-020-022-023-036>040-048>070-011400-
SOUTHEAST SOUTH DAKOTA

CITY           SKY/WX    TMP DP  RH WIND       PRES   REMARKS
SIOUX FALLS    CLOUDY    65  62  90 NE5       29.95R FOG
HURON          LGT RAIN  67  65  93 SE9       29.89R FOG
CHAMBERLAIN    SUNNY     67  63  89 SE6       29.88S
MITCHELL       PTSUNNY   67  66  97 E6        29.89S FOG
YANKTON        PTSUNNY   68  64  88 E7        29.88R
$$

ABBREVIATIONS USED IN REMARKS
   TC - TEMPERATURE IN CELSIUS
  WCI - WIND CHILL INDEX
   HX - HEAT INDEX
  VSB - VISIBILITY



USA.gov is the U.S. government's official web portal to all federal, state and local government web resources and services.